{"data":{"norad_id":57414,"intl_designator":"2023-102L","name":"STARLINK-30193","alt_names":[],"object_type":"PAYLOAD","status":"ACTIVE","operator":null,"country":"US","launch_date":"2023-07-20","launch_site_code":"AFWTR","launch_vehicle":null,"mission":null,"orbit_class":"UNKNOWN","rcs_meters":null,"size_class":null,"mass_kg":null,"dimensions":null,"purposes":["comms"],"wikipedia_slug":null,"has_3d_model":false,"image_url":null,"decayed_at":null,"tle_current":{"epoch":"2026-05-25T04:00:03.998880Z","epoch_age_seconds":67598,"freshness":"FRESH","line1":"1 57414U 23102L   26145.16671295  .00068385  00000+0  19327-2 0  9997","line2":"2 57414  43.0011 177.4445 0000866 329.2469 145.8462 15.35462385  5714","mean_motion":15.35462385,"eccentricity":8.66e-5,"inclination_deg":43.0011,"raan_deg":177.4445,"arg_perigee_deg":329.2469,"mean_anomaly_deg":145.8462,"bstar":0.0019327,"rev_number":571,"period_min":93.782824904565,"perigee_km":458.95528540368,"apogee_km":460.13957234676,"semimajor_km":6837.6844288752,"source":"CELESTRAK","updated_at":"2026-05-25T13:38:18.317156Z"}}}